Weather History for Torrington, WY

Change the Weather History Date:

Wednesday, March 14, 2012

  Actual Average Record
Temperature  
Mean Temperature 54 °F 37 °F  
Max Temperature 75 °F 51 °F 79 °F (2003)
Min Temperature 32 °F 24 °F 13 °F (2009)
Degree Days  
Heating Degree Days 11 28  
Month to date heating degree days 311 410  
Since 1 July heating degree days 5049 5254  
Cooling Degree Days 0 0  
Month to date cooling degree days 0 0  
Year to date cooling degree days 0 0  
Growing Degree Days 4 (Base 50)    
Moisture  
Dew Point 15 °F    
Average Humidity 29    
Maximum Humidity 51    
Minimum Humidity 7    
Precipitation  
Precipitation 0.00 in 0.02 in 0.18 in (2002)
Month to date precipitation 0.00 0.22  
Year to date precipitation 0.72 0.82  
Sea Level Pressure  
Sea Level Pressure 29.83 in    
Wind  
Wind Speed 8 mph (West)    
Max Wind Speed 25 mph    
Max Gust Speed 33 mph    
Visibility 10 miles    
Events      
T = Trace of Precipitation, MM = Missing Value Source: NWS Daily Summary

Daily Weather History Graph

Daily Weather History Graph

Search for Another Location

Airport:

Trip Planner

Search our weather history database for the weather conditions in past years. The results will help you decide how hot, cold, wet, or windy it might be!

Date:

Astronomy

Mar. 14, 2012 Rise Set
Actual Time 7:09 AM MDT 7:02 PM MDT
Civil Twilight 6:41 AM MDT 7:30 PM MDT
Nautical Twilight 6:09 AM MDT 8:03 PM MDT
Astronomical Twilight 5:36 AM MDT 8:36 PM MDT
Moon 1:47 AM MDT (3/14) 11:15 AM MDT (3/14)
Length of Visible Light 12h 49m
Length of Day
11h 53m
Waning Gibbous, 54% of the Moon is Illuminated
Mar 14
Waning Gibbous
Mar 14
Last Quarter
Mar 22
New
Mar 30
First Quarter
Apr 6
Full

Hourly Weather History & Observations

Time (MDT) Temp. Windchill Dew Point Humidity Pressure Visibility Wind Dir Wind Speed Gust Speed Precip Events Conditions
12:53 AM 46.0 °F 43.9 °F 16.0 °F 30% 29.72 in 10.0 mi West 4.6 mph - N/A   Clear
1:53 AM 42.1 °F 39.2 °F 17.1 °F 37% 29.75 in 10.0 mi WSW 4.6 mph - N/A   Clear
2:53 AM 37.0 °F 32.4 °F 16.0 °F 42% 29.78 in 10.0 mi South 5.8 mph - N/A   Clear
3:53 AM 35.1 °F - 17.1 °F 48% 29.78 in 10.0 mi Calm Calm - N/A   Clear
4:53 AM 34.0 °F 28.8 °F 18.0 °F 52% 29.81 in 10.0 mi South 5.8 mph - N/A   Clear
5:53 AM 41.0 °F 38.0 °F 17.1 °F 38% 29.82 in 10.0 mi WNW 4.6 mph - N/A   Clear
6:53 AM 44.1 °F 42.5 °F 17.1 °F 34% 29.83 in 10.0 mi NW 3.5 mph - N/A   Clear
7:53 AM 39.0 °F - 19.0 °F 45% 29.89 in 10.0 mi Calm Calm - N/A   Clear
8:53 AM 44.1 °F - 19.9 °F 38% 29.93 in 10.0 mi Calm Calm - N/A   Clear
9:53 AM 53.1 °F - 19.9 °F 27% 29.91 in 10.0 mi West 5.8 mph - N/A   Clear
10:53 AM 61.0 °F - 18.0 °F 19% 29.90 in 10.0 mi NW 5.8 mph - N/A   Clear
11:53 AM 63.0 °F - 14.0 °F 15% 29.88 in 10.0 mi WSW 10.4 mph - N/A   Clear
12:53 PM 66.9 °F - 10.9 °F 11% 29.83 in 10.0 mi SW 8.1 mph 18.4 mph N/A   Clear
1:53 PM 72.0 °F - 8.1 °F 8% 29.80 in 10.0 mi SSW 19.6 mph 24.2 mph N/A   Clear
2:53 PM 73.9 °F - 10.0 °F 9% 29.78 in 10.0 mi South 16.1 mph 24.2 mph N/A   Clear
3:53 PM 72.0 °F - 3.0 °F 7% 29.78 in 10.0 mi WSW 15.0 mph - N/A   Clear
4:53 PM 72.0 °F - 8.1 °F 8% 29.78 in 10.0 mi West 17.3 mph - N/A   Clear
5:53 PM 71.1 °F - 10.9 °F 10% 29.77 in 10.0 mi West 15.0 mph 23.0 mph N/A   Clear
6:53 PM 64.9 °F - 15.1 °F 15% 29.81 in 10.0 mi NW 9.2 mph - N/A   Clear
7:53 PM 60.1 °F - 17.1 °F 19% 29.86 in 10.0 mi NW 6.9 mph - N/A   Clear
8:53 PM 54.0 °F - 18.0 °F 24% 29.88 in 10.0 mi NNW 6.9 mph - N/A   Clear
9:53 PM 54.0 °F - 18.0 °F 24% 29.87 in 10.0 mi Calm Calm - N/A   Clear
10:53 PM 55.0 °F - 19.0 °F 24% 29.86 in 10.0 mi Calm Calm - N/A   Clear
11:53 PM 57.0 °F - 21.0 °F 25% 29.86 in 10.0 mi South 5.8 mph - N/A   Partly Cloudy